TimeEST,TemperatureF,Dew PointF,Humidity,Sea Level PressureIn,VisibilityMPH,Wind Direction,Wind SpeedMPH,Gust SpeedMPH,PrecipitationIn,Events,Conditions,WindDirDegrees,DateUTC
12:53 AM,43.0,33.1,68,30.17,10.0,SSE,16.1,21.9,N/A,,Overcast,150,2013-11-04 05:53:00
1:53 AM,44.1,33.1,65,30.16,10.0,SSE,17.3,25.3,N/A,,Overcast,150,2013-11-04 06:53:00
2:53 AM,44.1,34.0,68,30.14,10.0,SSE,19.6,32.2,N/A,,Overcast,160,2013-11-04 07:53:00
3:02 AM,44.6,33.8,66,30.11,10.0,SSE,13.8,31.1,N/A,,Overcast,160,2013-11-04 08:02:00
3:17 AM,44.6,33.8,66,30.11,10.0,SSE,15.0,27.6,N/A,,Overcast,160,2013-11-04 08:17:00
3:32 AM,44.6,33.8,66,30.11,10.0,SSE,16.1,24.2,N/A,,Overcast,160,2013-11-04 08:32:00
3:53 AM,44.1,34.0,68,30.13,10.0,SSE,16.1,25.3,N/A,,Overcast,160,2013-11-04 08:53:00
4:33 AM,44.6,35.6,71,30.07,10.0,SSE,16.1,21.9,N/A,,Overcast,150,2013-11-04 09:33:00
4:53 AM,44.1,35.1,71,30.11,10.0,SSE,15.0,26.5,N/A,,Overcast,160,2013-11-04 09:53:00
5:53 AM,45.0,34.0,65,30.11,10.0,SSE,13.8,20.7,N/A,,Overcast,160,2013-11-04 10:53:00
6:21 AM,44.6,33.8,66,30.09,10.0,SSE,11.5,19.6,N/A,,Overcast,160,2013-11-04 11:21:00
6:36 AM,44.6,33.8,66,30.07,10.0,SSE,11.5,21.9,N/A,,Overcast,160,2013-11-04 11:36:00
6:53 AM,45.0,34.0,65,30.11,10.0,SSE,12.7,20.7,N/A,,Overcast,160,2013-11-04 11:53:00
7:53 AM,45.0,34.0,65,30.08,10.0,SSE,15.0,23.0,N/A,,Overcast,160,2013-11-04 12:53:00
8:51 AM,44.6,33.8,66,30.05,10.0,South,13.8,24.2,N/A,,Mostly Cloudy,170,2013-11-04 13:51:00
8:53 AM,45.0,34.0,65,30.08,10.0,SSE,13.8,-,N/A,,Mostly Cloudy,160,2013-11-04 13:53:00
9:17 AM,46.4,35.6,66,30.04,10.0,SSE,13.8,26.5,N/A,,Mostly Cloudy,160,2013-11-04 14:17:00
9:53 AM,46.0,35.1,66,30.05,10.0,South,17.3,26.5,N/A,,Overcast,170,2013-11-04 14:53:00
10:53 AM,46.9,35.1,63,30.04,10.0,South,21.9,29.9,N/A,,Overcast,180,2013-11-04 15:53:00
11:53 AM,46.9,35.1,63,30.02,10.0,South,15.0,25.3,N/A,,Overcast,170,2013-11-04 16:53:00
12:53 PM,46.9,36.0,66,29.99,10.0,South,11.5,-,0.00,Rain,Light Rain,170,2013-11-04 17:53:00
1:53 PM,46.0,39.0,76,29.95,10.0,SE,6.9,-,0.01,,Overcast,130,2013-11-04 18:53:00
2:53 PM,48.0,37.0,66,29.93,10.0,South,16.1,23.0,0.00,Rain,Light Rain,170,2013-11-04 19:53:00
3:53 PM,48.0,37.0,66,29.92,10.0,SSE,15.0,23.0,0.00,,Overcast,160,2013-11-04 20:53:00
4:53 PM,46.9,39.0,74,29.92,5.0,South,8.1,-,0.01,Rain,Light Rain,170,2013-11-04 21:53:00
5:53 PM,46.9,39.0,74,29.92,9.0,South,12.7,18.4,0.01,Rain,Light Rain,180,2013-11-04 22:53:00
6:29 PM,44.6,39.2,81,29.90,7.0,South,9.2,-,0.01,Rain,Light Rain,190,2013-11-04 23:29:00
6:53 PM,45.0,39.9,82,29.92,7.0,South,9.2,-,0.02,Rain,Light Rain,190,2013-11-04 23:53:00
7:53 PM,45.0,41.0,86,29.94,7.0,SSW,15.0,23.0,0.01,,Overcast,200,2013-11-05 00:53:00
8:53 PM,45.0,39.9,82,29.94,10.0,South,11.5,19.6,N/A,,Overcast,190,2013-11-05 01:53:00
9:53 PM,45.0,41.0,86,29.96,10.0,SSW,10.4,-,N/A,,Overcast,210,2013-11-05 02:53:00
10:53 PM,46.0,39.9,79,29.99,10.0,West,17.3,25.3,N/A,,Overcast,270,2013-11-05 03:53:00
11:53 PM,44.1,37.0,76,30.01,10.0,WSW,18.4,27.6,N/A,,Overcast,250,2013-11-05 04:53:00